Location: Moonridge Observatory
(39.2268°N, 77.7914°W)
Time: 09:31:16
(UTC-04:00)

Amateur Radio Satellites - All Passes

Search period start: 29 April 2017 09:01
Search period end: 30 April 2017 09:01
Location: Moonridge Observatory, 39.2268°N, 77.7914°W

Satellite Date Start Highest point End Downlink Frequencies (MHz)
Time Altitude Azimuth
CUTE-I 29 Apr 09:12:02 09:14:51 15° 299° (WNW) 09:17:40 437.470
ISS 29 Apr 09:22:41 09:25:10 20° 336° (NNW) 09:27:41 437.550
AAUSAT CUBESAT 2 29 Apr 09:26:44 09:30:57 82° 102° (ESE) 09:35:07 437.432
UWE-3 29 Apr 09:28:13 09:32:27 74° 102° (ESE) 09:36:45 435.000/436.395/437.385
XW-2A 29 Apr 09:30:35 09:32:56 18° 290° (WNW) 09:35:17 145.665 - 145.685
HO-68 29 Apr 09:39:16 09:46:07 49° 293° (WNW) 09:52:58 435.675
DELFI C3 29 Apr 09:46:58 09:48:38 12° 91° (E) 09:50:16 145.870
CUBEBUG 2 29 Apr 09:47:48 09:51:40 38° 288° (WNW) 09:55:37 437.445
TIGRISAT 29 Apr 09:48:17 09:51:59 28° 70° (ENE) 09:55:39 435.000
CUTE 1.7 + AOD 2 29 Apr 09:49:30 09:52:26 18° 293° (WNW) 09:55:22 437.475
RS-15 29 Apr 09:53:29 10:04:20 35° 323° (NW) 10:15:23 29.354- 29.394
SEEDS 29 Apr 10:03:54 10:06:55 19° 293° (WNW) 10:09:54 437.485
O/OREOS (USA 219) 29 Apr 10:05:31 10:10:00 57° 108° (ESE) 10:14:32 437.305
FO-29 29 Apr 10:05:55 10:11:45 44° 71° (ENE) 10:17:01 435.910
UNISAT 6 29 Apr 10:09:46 10:14:01 53° 74° (ENE) 10:18:13 437.425
ZACube-1 29 Apr 10:17:14 10:21:23 53° 285° (WNW) 10:25:35 437.345
PRISM 29 Apr 10:19:40 10:23:47 68° 258° (WSW) 10:27:57 437.425
AO-73 29 Apr 10:22:22 10:26:30 52° 286° (WNW) 10:30:42 145.935
PCSat 29 Apr 10:33:03 10:37:38 27° 51° (NE) 10:42:11 145.827
Oscar 11 29 Apr 10:34:28 10:38:39 46° 287° (WNW) 10:42:48 .
OBJECT BX 29 Apr 11:17:23 11:21:00 62° 285° (WNW) 11:24:37 145.990 - 145.960
DELFI C3 29 Apr 11:19:48 11:23:39 45° 287° (WNW) 11:27:27 145.870
AIST 2D 29 Apr 11:22:03 11:25:17 37° 73° (ENE) 11:28:31 435.315
POLYITAN 1 29 Apr 11:23:30 11:26:53 24° 69° (ENE) 11:30:16 437.675
TIGRISAT 29 Apr 11:25:08 11:28:38 23° 265° (W) 11:32:06 435.000
AO-85 29 Apr 11:25:19 11:28:17 18° 112° (ESE) 11:31:08 145.980
QB50P2 29 Apr 11:29:55 11:33:37 30° 70° (ENE) 11:37:19 145.880/145.840
O/OREOS (USA 219) 29 Apr 11:47:06 11:49:48 15° 305° (NW) 11:52:30 437.305
NANOSAT C BR1 29 Apr 11:48:31 11:52:28 41° 72° (ENE) 11:56:25 145.865
UNISAT 6 29 Apr 11:49:12 11:51:01 12° 269° (W) 11:52:48 437.425
FO-29 29 Apr 11:51:57 11:56:56 25° 264° (W) 12:01:31 435.910
LO-87 29 Apr 12:11:21 12:14:55 74° 102° (ESE) 12:18:27 145.935 - 145.965
RS-15 29 Apr 12:13:53 12:22:14 20° 357° (N) 12:30:30 29.354- 29.394
PCSat 29 Apr 12:16:03 12:21:11 44° 248° (WSW) 12:26:17 145.827
DUCHIFAT 1 29 Apr 12:16:24 12:20:35 80° 77° (ENE) 12:24:46 145.980
EO-79 29 Apr 12:17:59 12:22:12 79° 259° (WSW) 12:26:25 145.935-145.965
ESTCUBE 1 29 Apr 12:24:52 12:29:19 51° 100° (E) 12:33:43 437.505/2401.250
VELOX 1 29 Apr 12:26:41 12:28:55 14° 92° (E) 12:31:07 145.980
Oscar 19 29 Apr 12:31:25 12:34:22 15° 62° (ENE) 12:37:19 437.125/150
ISS 29 Apr 12:38:36 12:40:21 14° 17° (NNE) 12:42:05 437.550
Gurwin Techsat 1B 29 Apr 12:56:49 13:00:00 16° 62° (ENE) 13:03:11 435.225
AIST 2D 29 Apr 12:57:49 12:58:40 11° 269° (W) 12:59:31 435.315
POLYITAN 1 29 Apr 12:59:00 13:02:33 26° 264° (W) 13:06:06 437.675
AO-85 29 Apr 13:04:24 13:08:25 39° 306° (NW) 13:12:14 145.980
SPROUT 29 Apr 13:05:00 13:08:54 34° 98° (E) 13:12:46 437.525
BUGSAT 1 29 Apr 13:06:03 13:10:12 88° 254° (WSW) 13:14:19 437.445
QB50P2 29 Apr 13:06:14 13:09:24 20° 265° (W) 13:12:36 145.880/145.840
DX 1 29 Apr 13:08:31 13:10:53 14° 92° (E) 13:13:14 434.975-435.025
BEESAT 3 29 Apr 13:24:12 13:28:05 65° 118° (ESE) 13:32:03 437.485
NANOSAT C BR1 29 Apr 13:25:55 13:28:21 15° 267° (W) 13:30:48 145.865
Tancredo 1 29 Apr 13:29:33 13:32:18 28° 29° (NNE) 13:35:02 437.200
BEESAT 2 29 Apr 13:30:41 13:34:00 26° 113° (ESE) 13:37:23 435.950
50 SAT 29 Apr 13:58:34 14:02:03 80° 284° (WNW) 14:05:30 437.505
VELOX 1 29 Apr 14:01:21 14:05:38 50° 287° (WNW) 14:09:53 145.980
ESTCUBE 1 29 Apr 14:03:01 14:05:40 15° 296° (WNW) 14:08:18 437.505/2401.250
UKube-1 29 Apr 14:03:51 14:07:56 41° 99° (E) 14:12:00 .
ITAMSAT 1 29 Apr 14:06:27 14:07:04 10° 58° (ENE) 14:07:41 435.822/435.867
Oscar 19 29 Apr 14:07:58 14:13:05 66° 258° (WSW) 14:18:16 437.125/150
ISS 29 Apr 14:14:12 14:17:24 55° 35° (NE) 14:20:36 437.550
SO-50 29 Apr 14:16:32 14:20:17 25° 48° (NE) 14:24:01 436.795
RS-15 29 Apr 14:29:52 14:40:28 32° 33° (NNE) 14:50:40 29.354- 29.394
Gurwin Techsat 1B 29 Apr 14:34:06 14:39:22 65° 258° (WSW) 14:44:40 435.225
YUBILEINY 29 Apr 14:37:56 14:45:12 28° 69° (ENE) 14:52:26 435.215
SPROUT 29 Apr 14:41:33 14:44:33 19° 293° (WNW) 14:47:31 437.525
DX 1 29 Apr 14:43:07 14:47:19 47° 287° (WNW) 14:51:28 434.975-435.025
AO-7 29 Apr 14:54:17 15:01:55 43° 62° (ENE) 15:09:34 .
BEESAT 3 29 Apr 15:04:04 15:06:06 13° 317° (NW) 15:08:08 437.485
Tancredo 1 29 Apr 15:05:27 15:08:09 28° 226° (SW) 15:10:51 437.200
BEESAT 2 29 Apr 15:08:19 15:11:41 26° 310° (NW) 15:15:07 435.950
ITUPSAT 1 29 Apr 15:13:58 15:17:22 19° 94° (E) 15:20:45 437.325
MOZHAYETS 4 29 Apr 15:34:53 15:37:38 16° 92° (E) 15:40:23
ITAMSAT 1 29 Apr 15:40:29 15:45:40 82° 75° (ENE) 15:50:53 435.822/435.867
UKube-1 29 Apr 15:40:50 15:43:37 17° 295° (WNW) 15:46:24 .
ISS 29 Apr 15:51:45 15:53:34 14° 231° (SW) 15:55:22 437.550
SO-50 29 Apr 15:56:40 16:00:48 36° 245° (WSW) 16:04:55 436.795
BEESAT 29 Apr 16:07:49 16:12:35 72° 102° (ESE) 16:17:21 436.000
YUBILEINY 29 Apr 16:33:56 16:42:32 62° 269° (W) 16:51:09 435.215
CUBESAT XI-V 29 Apr 16:35:26 16:36:57 11° 90° (E) 16:38:28 437.345
RS-15 29 Apr 16:42:34 16:54:54 88° 60° (ENE) 17:06:34 29.354- 29.394
AO-7 29 Apr 16:46:55 16:54:37 42° 260° (W) 17:02:23 .
ITUPSAT 1 29 Apr 16:50:50 16:55:21 42° 289° (WNW) 16:59:51 437.325
KKS-1 29 Apr 17:00:15 17:03:34 20° 94° (E) 17:06:52 437.445
MOZHAYETS 4 29 Apr 17:10:35 17:15:02 48° 287° (WNW) 17:19:28
CUTE-I 29 Apr 17:14:15 17:16:51 14° 60° (ENE) 17:19:27 437.470
DOVE 4 29 Apr 17:23:18 17:27:40 27° 68° (ENE) 17:31:57 437.250
STARS 29 Apr 17:23:30 17:26:04 15° 93° (E) 17:28:36 437.465
ITAMSAT 1 29 Apr 17:24:39 17:25:43 11° 271° (W) 17:26:47 435.822/435.867
XW-2F 29 Apr 17:35:30 17:37:32 14° 67° (ENE) 17:39:35 145.980 - 146.000
JUGNU 29 Apr 17:36:55 17:37:55 10° 177° (S) 17:38:54 437.505
NUDT-PHONESAT 29 Apr 17:37:41 17:39:07 12° 66° (ENE) 17:40:33 437.300
BEESAT 29 Apr 17:47:46 17:49:44 12° 299° (WNW) 17:51:41 436.000
CUBESAT XI-V 29 Apr 18:10:03 18:14:46 67° 284° (WNW) 18:19:25 437.345
HO-68 29 Apr 18:20:49 18:25:56 22° 58° (ENE) 18:31:04 435.675
XW-2D 29 Apr 18:25:29 18:29:11 66° 76° (ENE) 18:32:55 145.860 - 145.880
NO-84 29 Apr 18:30:00 18:33:42 41° 131° (SE) 18:37:06 435.350 FM
XW-2B 29 Apr 18:32:30 18:36:13 79° 77° (ENE) 18:39:58 145.730 - 145.750
KAITUO 1B 29 Apr 18:34:11 18:37:50 64° 76° (ENE) 18:41:30 145.475/437.950
KKS-1 29 Apr 18:36:11 18:40:10 34° 290° (WNW) 18:44:09 437.445
O/OREOS (USA 219) 29 Apr 18:40:29 18:41:04 10° 51° (NE) 18:41:40 437.305
XW-2C 29 Apr 18:44:35 18:48:18 70° 259° (W) 18:52:03 145.795 - 145.815
LilacSat-2 29 Apr 18:47:24 18:51:06 60° 259° (W) 18:54:51 437.200
CUTE-I 29 Apr 18:50:51 18:56:12 78° 257° (WSW) 19:01:34 437.470
RS-15 29 Apr 18:57:07 19:05:39 23° 261° (W) 19:13:58 29.354- 29.394
STARS 29 Apr 18:58:27 19:02:36 44° 288° (WNW) 19:06:44 437.465
DOVE 4 29 Apr 19:00:16 19:05:08 37° 263° (W) 19:09:56 437.250
CUTE 1.7 + AOD 2 29 Apr 19:04:47 19:08:08 23° 69° (ENE) 19:11:31 437.475
XW-2F 29 Apr 19:07:56 19:11:21 35° 262° (W) 19:14:49 145.980 - 146.000
NUDT-PHONESAT 29 Apr 19:09:09 19:12:38 41° 261° (W) 19:16:08 437.300
CUBEBUG 2 29 Apr 19:10:29 19:12:22 13° 65° (ENE) 19:14:13 437.445
SEEDS 29 Apr 19:18:34 19:21:45 21° 68° (ENE) 19:24:57 437.485
Oscar 11 29 Apr 19:55:52 19:56:21 10° 62° (ENE) 19:56:49 .
AO-85 29 Apr 19:57:10 19:59:05 13° 44° (NE) 20:01:00 145.980
XW-2A 29 Apr 19:59:39 20:02:59 67° 259° (W) 20:06:19 145.665 - 145.685
STRAND 1 29 Apr 20:05:12 20:09:54 36° 98° (E) 20:14:35 437.568
HO-68 29 Apr 20:05:47 20:12:55 74° 256° (WSW) 20:20:07 435.675
NO-84 29 Apr 20:08:18 20:11:19 23° 326° (NW) 20:14:08 435.350 FM
AAUSAT CUBESAT 2 29 Apr 20:15:27 20:19:23 44° 73° (ENE) 20:23:21 437.432
O/OREOS (USA 219) 29 Apr 20:16:34 20:21:10 89° 256° (WSW) 20:25:42 437.305
UWE-3 29 Apr 20:24:01 20:28:06 49° 74° (ENE) 20:32:09 435.000/436.395/437.385
M-CUBED/EXP-1 PRIME 29 Apr 20:29:59 20:33:43 35° 102° (ESE) 20:37:09 437.505
CUTE 1.7 + AOD 2 29 Apr 20:40:14 20:43:49 27° 264° (W) 20:47:27 437.475
CUBEBUG 2 29 Apr 20:44:17 20:48:32 55° 260° (W) 20:52:42 437.445
SRMSAT 29 Apr 20:53:26 20:55:04 11° 180° (S) 20:56:42 437.500
SEEDS 29 Apr 20:53:35 20:57:14 29° 264° (W) 21:00:57 437.485
ZACube-1 29 Apr 21:11:35 21:15:46 81° 258° (WSW) 21:19:56 437.345
AO-73 29 Apr 21:16:24 21:20:33 80° 258° (WSW) 21:24:42 145.935
Oscar 11 29 Apr 21:27:34 21:31:51 72° 259° (W) 21:36:10 .
AO-85 29 Apr 21:35:52 21:39:50 67° 241° (WSW) 21:44:00 145.980
BEESAT 3 29 Apr 21:42:11 21:45:40 27° 51° (NE) 21:49:06 437.485
STRAND 1 29 Apr 21:44:44 21:48:53 25° 293° (WNW) 21:53:00 437.568
BEESAT 2 29 Apr 21:49:41 21:52:00 15° 44° (NE) 21:54:18 435.950
AAUSAT CUBESAT 2 29 Apr 21:52:54 21:55:03 14° 268° (W) 21:57:12 437.432
OBJECT BX 29 Apr 21:53:52 21:57:18 42° 74° (ENE) 22:00:46 145.990 - 145.960
HO-68 29 Apr 22:00:23 22:01:43 11° 273° (W) 22:03:04 435.675
UWE-3 29 Apr 22:03:01 22:04:49 12° 268° (W) 22:06:36 435.000/436.395/437.385
PRISM 29 Apr 22:03:01 22:05:47 17° 94° (E) 22:08:31 437.425
DELFI C3 29 Apr 22:03:26 22:07:25 82° 78° (ENE) 22:11:26 145.870
UNISAT 6 29 Apr 22:04:20 22:05:51 12° 91° (E) 22:07:21 437.425
M-CUBED/EXP-1 PRIME 29 Apr 22:05:09 22:07:49 17° 300° (WNW) 22:10:22 437.505
LO-87 29 Apr 22:46:38 22:49:36 24° 71° (ENE) 22:52:34 145.935 - 145.965
FO-29 29 Apr 23:00:03 23:05:00 39° 99° (E) 23:10:20 435.910
TIGRISAT 29 Apr 23:16:14 23:20:32 73° 103° (ESE) 23:24:54 435.000
BEESAT 3 29 Apr 23:19:49 23:23:09 25° 247° (WSW) 23:26:26 437.485
ESTCUBE 1 29 Apr 23:23:08 23:27:21 40° 72° (ENE) 23:31:36 437.505/2401.250
VELOX 1 29 Apr 23:23:53 23:25:28 12° 63° (ENE) 23:27:06 145.980
BEESAT 2 29 Apr 23:26:08 23:30:09 60° 241° (WSW) 23:34:06 435.950
OBJECT BX 29 Apr 23:30:27 23:31:13 10° 269° (W) 23:31:58 145.990 - 145.960
PRISM 29 Apr 23:37:23 23:41:09 35° 289° (WNW) 23:44:54 437.425
UNISAT 6 29 Apr 23:38:38 23:42:51 57° 286° (WNW) 23:47:09 437.425
SPROUT 29 Apr 23:57:31 00:00:56 24° 69° (ENE) 00:04:20 437.525
DUCHIFAT 1 30 Apr 00:03:01 00:05:02 13° 92° (E) 00:07:03 145.980
DX 1 30 Apr 00:04:00 00:05:41 12° 63° (ENE) 00:07:22 434.975-435.025
EO-79 30 Apr 00:04:36 00:07:25 17° 93° (E) 00:10:14 145.935-145.965
LO-87 30 Apr 00:20:22 00:23:00 19° 265° (W) 00:25:38 145.935 - 145.965
AIST 2D 30 Apr 00:20:52 00:24:20 55° 100° (E) 00:27:49 435.315
50 SAT 30 Apr 00:30:15 00:33:17 28° 71° (ENE) 00:36:20 437.505
POLYITAN 1 30 Apr 00:43:56 00:48:02 50° 100° (E) 00:52:07 437.675
FO-29 30 Apr 00:45:45 00:49:57 25° 293° (WNW) 00:54:23 435.910
BUGSAT 1 30 Apr 00:50:21 00:52:21 13° 92° (E) 00:54:20 437.445
QB50P2 30 Apr 00:50:42 00:54:53 67° 101° (E) 00:59:05 145.880/145.840
VELOX 1 30 Apr 00:56:54 01:01:20 67° 258° (WSW) 01:05:48 145.980
UKube-1 30 Apr 00:57:13 01:01:00 31° 70° (ENE) 01:04:49 .
ESTCUBE 1 30 Apr 01:01:16 01:04:18 18° 267° (W) 01:07:21 437.505/2401.250
NO-84 30 Apr 01:05:49 01:07:46 16° 30° (NNE) 01:09:39 435.350 FM
NANOSAT C BR1 30 Apr 01:08:58 01:13:10 89° 270° (W) 01:17:21 145.865
PCSat 30 Apr 01:13:54 01:18:25 28° 108° (ESE) 01:22:57 145.827
SPROUT 30 Apr 01:33:03 01:36:42 27° 264° (W) 01:40:22 437.525
DUCHIFAT 1 30 Apr 01:36:56 01:40:56 46° 287° (WNW) 01:44:56 145.980
DX 1 30 Apr 01:36:58 01:41:18 64° 258° (WSW) 01:45:41 434.975-435.025
EO-79 30 Apr 01:39:27 01:43:17 35° 289° (WNW) 01:47:07 145.935-145.965
50 SAT 30 Apr 02:04:17 02:06:15 14° 266° (W) 02:08:15 437.505
ITUPSAT 1 30 Apr 02:19:52 02:23:21 21° 66° (ENE) 02:26:50 437.325
Oscar 19 30 Apr 02:20:36 02:25:39 47° 99° (E) 02:30:38 437.125/150
POLYITAN 1 30 Apr 02:21:18 02:23:23 14° 295° (WNW) 02:25:27 437.675
BUGSAT 1 30 Apr 02:24:06 02:27:54 42° 287° (WNW) 02:31:41 437.445
QB50P2 30 Apr 02:29:16 02:30:06 10° 297° (WNW) 02:30:56 145.880/145.840
UKube-1 30 Apr 02:33:41 02:37:02 22° 265° (W) 02:40:24 .
MOZHAYETS 4 30 Apr 02:36:31 02:38:48 14° 64° (ENE) 02:41:06
NO-84 30 Apr 02:42:41 02:45:26 41° 228° (SW) 02:48:07 435.350 FM
Gurwin Techsat 1B 30 Apr 02:51:21 02:56:34 54° 100° (E) 03:01:45 435.225
PCSat 30 Apr 02:56:32 03:01:36 40° 305° (NW) 03:06:42 145.827
AO-7 30 Apr 03:00:28 03:03:02 12° 88° (E) 03:05:35 .
BEESAT 30 Apr 03:12:54 03:17:37 73° 74° (ENE) 03:22:22 436.000
YUBILEINY 30 Apr 03:38:00 03:45:22 32° 84° (E) 03:52:45 435.215
CUBESAT XI-V 30 Apr 03:38:38 03:39:46 11° 61° (ENE) 03:40:55 437.345
ITAMSAT 1 30 Apr 03:54:46 03:59:20 31° 97° (E) 04:03:53 435.822/435.867
ITUPSAT 1 30 Apr 03:56:25 04:00:52 40° 261° (W) 04:05:22 437.325
KKS-1 30 Apr 03:57:39 04:00:39 18° 65° (ENE) 04:03:39 437.445
Oscar 19 30 Apr 04:00:47 04:04:35 21° 296° (WNW) 04:08:22 437.125/150
MOZHAYETS 4 30 Apr 04:10:58 04:15:26 58° 260° (W) 04:19:57
STARS 30 Apr 04:19:51 04:21:54 13° 63° (ENE) 04:23:57 437.465
Gurwin Techsat 1B 30 Apr 04:32:25 04:36:04 19° 297° (WNW) 04:39:42 435.225
AO-7 30 Apr 04:48:45 04:57:04 72° 105° (ESE) 05:05:23 .
BEESAT 30 Apr 04:54:57 04:55:52 10° 270° (W) 04:56:47 436.000
RS-15 30 Apr 05:00:11 05:04:33 13° 94° (E) 05:08:56 29.354- 29.394
CUBESAT XI-V 30 Apr 05:11:48 05:16:27 79° 259° (WSW) 05:21:09 437.345
KKS-1 30 Apr 05:32:38 05:36:52 42° 261° (W) 05:41:07 437.445
YUBILEINY 30 Apr 05:33:21 05:41:44 52° 283° (WNW) 05:50:12 435.215
ITAMSAT 1 30 Apr 05:34:13 05:38:42 30° 293° (WNW) 05:43:11 435.822/435.867
STARS 30 Apr 05:53:24 05:57:44 58° 259° (WSW) 06:02:05 437.465
Tancredo 1 30 Apr 06:04:30 06:05:27 11° 129° (SE) 06:06:25 437.200
SO-50 30 Apr 06:09:04 06:13:41 90° 145° (SE) 06:18:17 436.795
XW-2C 30 Apr 06:19:41 06:21:29 13° 92° (E) 06:23:16 145.795 - 145.815
LilacSat-2 30 Apr 06:22:41 06:24:57 15° 93° (E) 06:27:13 437.200
NUDT-PHONESAT 30 Apr 06:41:08 06:43:45 18° 94° (E) 06:46:22 437.300
XW-2F 30 Apr 06:41:09 06:44:13 23° 95° (E) 06:47:16 145.980 - 146.000
AO-7 30 Apr 06:42:36 06:49:06 27° 304° (NW) 06:55:38 .
ISS 30 Apr 06:53:39 06:56:32 29° 134° (SE) 06:59:25 437.550
DOVE 4 30 Apr 07:00:21 07:04:51 70° 102° (ESE) 07:09:06 437.250
RS-15 30 Apr 07:02:39 07:14:25 66° 114° (ESE) 07:26:34 29.354- 29.394
CUTE-I 30 Apr 07:09:04 07:14:10 45° 99° (E) 07:19:14 437.470
M-CUBED/EXP-1 PRIME 30 Apr 07:13:28 07:17:52 43° 67° (ENE) 07:22:16 437.505
STRAND 1 30 Apr 07:19:54 07:24:46 47° 71° (ENE) 07:29:39 437.568
XW-2D 30 Apr 07:32:54 07:36:43 69° 283° (WNW) 07:40:31 145.860 - 145.880
HO-68 30 Apr 07:35:39 07:41:09 23° 93° (E) 07:46:36 435.675
Tancredo 1 30 Apr 07:37:53 07:40:57 64° 322° (NW) 07:44:02 437.200
XW-2B 30 Apr 07:39:59 07:43:45 58° 285° (WNW) 07:47:31 145.730 - 145.750
KAITUO 1B 30 Apr 07:40:05 07:43:52 74° 284° (WNW) 07:47:39 145.475/437.950
XW-2C 30 Apr 07:52:15 07:55:50 39° 287° (WNW) 07:59:25 145.795 - 145.815
SO-50 30 Apr 07:52:35 07:54:47 13° 319° (NW) 07:57:00 436.795
LilacSat-2 30 Apr 07:55:48 07:59:19 34° 288° (WNW) 08:02:50 437.200
NUDT-PHONESAT 30 Apr 08:14:29 08:17:39 27° 289° (WNW) 08:20:48 437.300
XW-2F 30 Apr 08:15:14 08:18:15 22° 290° (WNW) 08:21:15 145.980 - 146.000
UWE-3 30 Apr 08:17:02 08:17:46 10° 91° (E) 08:18:30 435.000/436.395/437.385
CUTE 1.7 + AOD 2 30 Apr 08:25:15 08:29:27 52° 99° (E) 08:33:38 437.475
ISS 30 Apr 08:30:03 08:32:59 30° 331° (NNW) 08:35:55 437.550
CUBEBUG 2 30 Apr 08:35:57 08:39:41 30° 97° (E) 08:43:27 437.445
SEEDS 30 Apr 08:37:41 08:41:49 46° 99° (E) 08:45:54 437.485
DOVE 4 30 Apr 08:40:50 08:41:49 11° 299° (WNW) 08:42:48 437.250
M-CUBED/EXP-1 PRIME 30 Apr 08:49:01 08:52:23 20° 262° (W) 08:55:46 437.505
CUTE-I 30 Apr 08:49:52 08:53:53 22° 295° (WNW) 08:57:53 437.470
O/OREOS (USA 219) 30 Apr 08:51:30 08:53:14 12° 97° (E) 08:54:58 437.305
PRISM 30 Apr 08:52:36 08:54:07 12° 63° (ENE) 08:55:37 437.425
